Date,TemperatureHighF,TemperatureAvgF,TemperatureLowF,DewpointHighF,DewpointAvgF,DewpointLowF,HumidityHigh,HumidityAvg,HumidityLow,PressureMaxIn,PressureMinIn,WindSpeedMaxMPH,WindSpeedAvgMPH,GustSpeedMaxMPH,PrecipitationSumIn
2013-11-1,55,47,38,-100,-100,-100,0,0,100,0.00,40.00,0,-999,0,0.01
2013-11-2,49,45,42,-100,-100,-100,0,0,100,0.00,40.00,0,-999,0,0.88
2013-11-3,45,42,38,-100,-100,-100,0,0,100,0.00,40.00,0,-999,0,0.01
2013-11-4,46,39,33,-100,-100,-100,0,0,100,0.00,40.00,0,-999,0,0.02
2013-11-5,49,45,40,-100,-100,-100,0,0,100,0.00,40.00,0,-999,0,0.10
2013-11-6,49,42,36,-100,-100,-100,0,0,100,0.00,40.00,0,-999,0,0.09
2013-11-7,49,45,43,-100,-100,-100,0,0,100,0.00,40.00,0,-999,0,1.33
2013-11-8,50,44,34,-100,-100,-100,0,0,100,0.00,40.00,0,-999,0,0.08
2013-11-9,46,38,31,-100,-100,-100,0,0,100,0.00,40.00,0,-999,0,0.02
2013-11-10,48,45,41,-100,-100,-100,0,0,100,0.00,40.00,0,-999,0,0.02
2013-11-11,54,43,35,-100,-100,-100,0,0,100,0.00,40.00,0,-999,0,0.00
2013-11-12,55,48,38,-100,-100,-100,0,0,100,0.00,40.00,0,-999,0,0.14
2013-11-13,49,45,41,-100,-100,-100,0,0,100,0.00,40.00,0,-999,0,0.08
2013-11-14,45,42,40,-100,-100,-100,0,0,100,0.00,40.00,0,-999,0,0.24
2013-11-15,42,40,38,-100,-100,-100,0,0,100,0.00,40.00,0,-999,0,0.90
2013-11-16,41,40,38,-100,-100,-100,0,0,100,0.00,40.00,0,-999,0,0.69
2013-11-17,45,42,37,-100,-100,-100,0,0,100,0.00,40.00,0,-999,0,0.42
2013-11-18,49,46,44,-100,-100,-100,0,0,100,0.00,40.00,0,-999,0,0.59
2013-11-19,49,42,35,-100,-100,-100,0,0,100,0.00,40.00,0,-999,0,0.57
2013-11-20,38,30,27,-100,-100,-100,0,0,100,0.00,40.00,0,-999,0,0.03
2013-11-21,36,28,21,-100,-100,-100,0,0,100,0.00,40.00,0,-999,0,0.00
2013-11-22,38,28,21,-100,-100,-100,0,0,100,0.00,40.00,0,-999,0,0.01
2013-11-23,41,30,24,-100,-100,-100,0,0,100,0.00,40.00,0,-999,0,0.01
2013-11-24,42,31,26,-100,-100,-100,0,0,100,0.00,40.00,0,-999,0,0.00
2013-11-25,46,32,27,-100,-100,-100,0,0,100,0.00,40.00,0,-999,0,0.00
2013-11-26,42,34,26,-100,-100,-100,0,0,100,0.00,40.00,0,-999,0,0.00
2013-11-27,47,35,30,-100,-100,-100,0,0,100,0.00,40.00,0,-999,0,0.00
2013-11-28,46,33,28,-100,-100,-100,0,0,100,0.00,40.00,0,-999,0,0.00
2013-11-29,44,37,29,-100,-100,-100,0,0,100,0.00,40.00,0,-999,0,0.01
2013-11-30,48,43,39,-100,-100,-100,0,0,100,0.00,40.00,0,-999,0,0.19